TimeEDT,TemperatureF,Dew PointF,Humidity,Sea Level PressureIn,VisibilityMPH,Wind Direction,Wind SpeedMPH,Gust SpeedMPH,PrecipitationIn,Events,Conditions,WindDirDegrees,DateUTC
12:53 AM,39.0,30.0,70,30.09,10.0,NNE,4.6,-,N/A,,Clear,20,2012-03-30 04:53:00
1:53 AM,37.0,30.0,76,30.08,10.0,North,5.8,-,N/A,,Clear,10,2012-03-30 05:53:00
2:53 AM,36.0,28.9,76,30.06,10.0,North,3.5,-,N/A,,Clear,10,2012-03-30 06:53:00
3:53 AM,36.0,30.0,79,30.04,10.0,NNE,3.5,-,N/A,,Clear,30,2012-03-30 07:53:00
4:53 AM,37.0,30.0,76,30.03,10.0,NE,3.5,-,N/A,,Scattered Clouds,50,2012-03-30 08:53:00
5:53 AM,37.4,30.2,75,30.03,10.0,Calm,Calm,-,N/A,,Scattered Clouds,0,2012-03-30 09:53:00
6:53 AM,37.0,30.9,79,30.04,10.0,NNE,4.6,-,N/A,,Overcast,30,2012-03-30 10:53:00
7:53 AM,37.4,30.2,75,30.04,10.0,Calm,Calm,-,N/A,,Overcast,0,2012-03-30 11:53:00
8:53 AM,39.9,32.0,73,30.04,10.0,NNW,3.5,-,N/A,,Overcast,330,2012-03-30 12:53:00
9:53 AM,42.1,35.1,76,30.03,10.0,Calm,Calm,-,N/A,,Overcast,0,2012-03-30 13:53:00
10:53 AM,44.1,36.0,73,30.02,10.0,Calm,Calm,-,N/A,,Overcast,0,2012-03-30 14:53:00
11:53 AM,46.0,37.0,71,30.00,10.0,Calm,Calm,-,N/A,,Overcast,0,2012-03-30 15:53:00
12:53 PM,50.0,37.9,63,29.96,10.0,Calm,Calm,-,N/A,,Overcast,0,2012-03-30 16:53:00
1:53 PM,57.2,42.8,59,29.91,10.0,Variable,3.5,-,N/A,,Mostly Cloudy,0,2012-03-30 17:53:00
2:53 PM,63.0,45.0,52,29.88,10.0,Calm,Calm,-,N/A,,Mostly Cloudy,0,2012-03-30 18:53:00
3:53 PM,66.0,48.0,52,29.84,10.0,WSW,5.8,-,N/A,,Scattered Clouds,240,2012-03-30 19:53:00
4:53 PM,66.9,46.9,49,29.81,10.0,South,8.1,-,N/A,,Partly Cloudy,180,2012-03-30 20:53:00
5:53 PM,66.0,48.9,54,29.79,10.0,South,6.9,-,0.00,,Mostly Cloudy,180,2012-03-30 21:53:00
6:53 PM,66.0,50.0,56,29.78,10.0,Calm,Calm,-,N/A,,Clear,0,2012-03-30 22:53:00
7:53 PM,64.0,50.0,60,29.75,10.0,South,6.9,-,N/A,,Clear,170,2012-03-30 23:53:00
8:53 PM,64.9,50.0,58,29.71,10.0,South,5.8,-,N/A,,Clear,170,2012-03-31 00:53:00
9:53 PM,66.9,50.0,54,29.71,10.0,South,5.8,-,N/A,,Mostly Cloudy,180,2012-03-31 01:53:00
10:53 PM,68.0,48.9,50,29.69,10.0,South,9.2,25.3,N/A,,Mostly Cloudy,190,2012-03-31 02:53:00
11:12 PM,62.6,50.0,63,29.78,1.8,West,24.2,38.0,0.11,Rain,Light Rain,270,2012-03-31 03:12:00
11:27 PM,57.2,51.8,82,29.79,3.0,WSW,11.5,18.4,0.27,Rain,Rain,250,2012-03-31 03:27:00
11:53 PM,55.9,53.1,90,29.80,4.0,South,3.5,-,0.36,Rain,Rain,180,2012-03-31 03:53:00